EZY29QW EGGP-LSGG

Flight info

Callsign EZY29QW
Flight time 1h 32m
Altitude 37000
Route NANTI L8 STAFA P18 TELBA L151 MID UL612 VEULE DCT PEKIM DCT PILUL DCT PIMUP DCT PIXIS DCT PIBAT DCT LUSAR
Aircraft A321/M-SDE3FGHIRWY/LB1

Departure

Time 2026-05-04 11:59
Airport Liverpool John Lennon Airport (EGGP)

Arrival

Time 2026-05-04 13:31
Airport Geneva International Airport (LSGG)
Time Latitude Longitude Altitude Speed Heading
2026-05-04 11:22 53.33663 -2.85439 89 ft 0 kts 355°
2026-05-04 11:47 53.33658 -2.85438 89 ft 2 kts 360°
2026-05-04 11:48 53.33645 -2.85442 91 ft 0 kts 22°
2026-05-04 11:48 53.33638 -2.85447 89 ft 2 kts 28°
2026-05-04 11:49 53.33627 -2.85459 89 ft 2 kts 41°
2026-05-04 11:49 53.33616 -2.85480 89 ft 2 kts 65°
2026-05-04 11:49 53.33612 -2.85511 91 ft 3 kts 85°
2026-05-04 11:49 53.33611 -2.85543 93 ft 2 kts 91°
2026-05-04 11:50 53.33612 -2.85562 93 ft 2 kts 90°
2026-05-04 11:50 53.33611 -2.85573 88 ft 0 kts 88°
2026-05-04 11:50 53.33611 -2.85572 88 ft 0 kts 88°
2026-05-04 11:53 53.33611 -2.85556 92 ft 6 kts 100°
2026-05-04 11:53 53.33544 -2.85507 90 ft 10 kts 175°
2026-05-04 11:55 53.33586 -2.83731 86 ft 25 kts 86°
2026-05-04 11:55 53.33599 -2.83459 93 ft 22 kts 85°
2026-05-04 11:56 53.33578 -2.83340 95 ft 0 kts 133°
2026-05-04 11:56 53.33577 -2.83337 95 ft 0 kts 133°
2026-05-04 11:56 53.33562 -2.83318 95 ft 4 kts 151°
2026-05-04 11:56 53.33545 -2.83306 92 ft 1 kts 161°
2026-05-04 11:57 53.33540 -2.83304 91 ft 0 kts 163°
2026-05-04 11:57 53.33527 -2.83300 93 ft 7 kts 174°
2026-05-04 11:57 53.33456 -2.83300 85 ft 6 kts 199°
2026-05-04 11:57 53.33437 -2.83360 85 ft 6 kts 269°
2026-05-04 11:58 53.33437 -2.83379 88 ft 9 kts 268°
2026-05-04 11:58 53.33415 -2.83872 84 ft 74 kts 265°
2026-05-04 11:58 53.33358 -2.85112 83 ft 140 kts 265°
2026-05-04 11:58 53.33275 -2.86913 374 ft 162 kts 266°
2026-05-04 11:59 53.33199 -2.88834 979 ft 166 kts 266°
2026-05-04 11:59 53.33064 -2.90720 1759 ft 161 kts 258°
2026-05-04 11:59 53.32585 -2.92514 2138 ft 183 kts 228°
2026-05-04 11:59 53.31418 -2.93551 2326 ft 206 kts 184°
2026-05-04 12:00 53.30009 -2.92870 2556 ft 225 kts 141°
2026-05-04 12:00 53.28916 -2.90858 2823 ft 246 kts 126°
2026-05-04 12:00 53.27873 -2.88392 3089 ft 273 kts 124°
2026-05-04 12:00 53.26732 -2.85688 3459 ft 296 kts 124°
2026-05-04 12:01 53.25490 -2.82825 3907 ft 311 kts 125°
2026-05-04 12:01 53.24196 -2.79896 4053 ft 314 kts 126°
2026-05-04 12:02 53.16278 -2.62300 5044 ft 321 kts 127°
2026-05-04 12:03 53.14840 -2.59450 5967 ft 323 kts 135°
2026-05-04 12:03 53.13029 -2.57190 6770 ft 329 kts 149°
2026-05-04 12:03 53.10971 -2.55488 7524 ft 333 kts 157°
2026-05-04 12:03 53.08793 -2.54114 8335 ft 336 kts 162°
2026-05-04 12:04 53.06563 -2.52926 9216 ft 337 kts 163°
2026-05-04 12:04 53.04299 -2.51804 9977 ft 342 kts 164°
2026-05-04 12:04 53.02035 -2.50692 10625 ft 346 kts 164°
2026-05-04 12:04 52.99720 -2.49531 11300 ft 349 kts 163°
2026-05-04 12:05 52.97380 -2.48327 11890 ft 356 kts 163°
2026-05-04 12:05 52.96576 -2.47908 12041 ft 359 kts 163°
2026-05-04 12:06 52.95157 -2.47162 12319 ft 364 kts 163°
2026-05-04 12:06 52.92756 -2.45886 12871 ft 370 kts 163°
2026-05-04 12:06 52.90258 -2.44558 13521 ft 373 kts 164°
2026-05-04 12:07 52.87766 -2.43279 14099 ft 377 kts 164°
2026-05-04 12:07 52.85283 -2.42018 14636 ft 380 kts 164°
2026-05-04 12:07 52.82747 -2.40719 15202 ft 383 kts 164°
2026-05-04 12:07 52.80194 -2.39394 15771 ft 386 kts 164°
2026-05-04 12:08 52.77623 -2.38046 16325 ft 389 kts 163°
2026-05-04 12:08 52.75037 -2.36680 16879 ft 392 kts 163°
2026-05-04 12:08 52.72434 -2.35299 17477 ft 393 kts 163°
2026-05-04 12:08 52.69825 -2.33914 18069 ft 395 kts 163°
2026-05-04 12:09 52.67238 -2.32336 18514 ft 400 kts 156°
2026-05-04 12:09 52.64774 -2.30166 18980 ft 402 kts 152°
2026-05-04 12:09 52.62416 -2.27820 19454 ft 404 kts 149°
2026-05-04 12:10 52.61125 -2.26464 19704 ft 405 kts 149°
2026-05-04 12:10 52.58763 -2.23901 20169 ft 407 kts 148°
2026-05-04 12:10 52.56409 -2.21298 20416 ft 408 kts 147°
2026-05-04 12:11 52.54043 -2.18670 20678 ft 413 kts 147°
2026-05-04 12:11 52.51657 -2.16029 21162 ft 414 kts 147°
2026-05-04 12:11 52.49450 -2.13600 21458 ft 417 kts 148°
2026-05-04 12:12 52.47742 -2.11732 21704 ft 420 kts 148°
2026-05-04 12:12 52.45506 -2.09299 22150 ft 421 kts 148°
2026-05-04 12:12 52.43053 -2.06646 22628 ft 422 kts 148°
2026-05-04 12:12 52.40592 -2.03983 22959 ft 428 kts 148°
2026-05-04 12:13 52.38089 -2.01270 23131 ft 436 kts 148°
2026-05-04 12:14 52.19454 -1.81158 24759 ft 471 kts 149°
2026-05-04 12:15 52.16709 -1.78221 25046 ft 473 kts 149°
2026-05-04 12:15 52.13949 -1.75274 25334 ft 475 kts 149°
2026-05-04 12:15 52.11182 -1.72325 25672 ft 475 kts 149°
2026-05-04 12:15 52.08421 -1.69386 26030 ft 474 kts 149°
2026-05-04 12:16 52.05664 -1.66454 26396 ft 473 kts 149°
2026-05-04 12:16 52.02911 -1.63526 26743 ft 472 kts 149°
2026-05-04 12:16 52.00164 -1.60614 27166 ft 470 kts 149°
2026-05-04 12:16 51.97428 -1.57729 27524 ft 469 kts 148°
2026-05-04 12:17 51.94706 -1.54812 27899 ft 468 kts 150°
2026-05-04 12:17 51.91967 -1.51959 28260 ft 468 kts 150°
2026-05-04 12:17 51.89245 -1.49095 28638 ft 467 kts 148°
2026-05-04 12:17 51.86542 -1.46190 29022 ft 466 kts 148°
2026-05-04 12:18 51.83846 -1.43282 29423 ft 464 kts 149°
2026-05-04 12:18 51.81199 -1.40446 29802 ft 463 kts 149°
2026-05-04 12:18 51.78480 -1.37557 30220 ft 459 kts 150°
2026-05-04 12:18 51.75815 -1.34747 30639 ft 456 kts 150°
2026-05-04 12:19 51.73194 -1.32001 30876 ft 456 kts 150°
2026-05-04 12:19 51.70529 -1.29224 31070 ft 457 kts 150°
2026-05-04 12:19 51.67859 -1.26447 31293 ft 457 kts 150°
2026-05-04 12:19 51.65187 -1.23672 31528 ft 457 kts 150°
2026-05-04 12:20 51.62515 -1.20899 31749 ft 457 kts 150°
2026-05-04 12:20 51.59841 -1.18128 31976 ft 457 kts 150°
2026-05-04 12:20 51.57169 -1.15362 32204 ft 457 kts 150°
2026-05-04 12:20 51.54500 -1.12600 32542 ft 454 kts 150°
2026-05-04 12:21 51.51853 -1.09865 32849 ft 452 kts 150°
2026-05-04 12:21 51.49205 -1.07134 33034 ft 453 kts 150°
2026-05-04 12:21 51.46552 -1.04403 33186 ft 454 kts 150°
2026-05-04 12:21 51.43894 -1.01670 33359 ft 454 kts 150°
2026-05-04 12:22 51.41236 -0.98942 33550 ft 454 kts 150°
2026-05-04 12:22 51.38575 -0.96213 33731 ft 454 kts 149°
2026-05-04 12:22 51.35926 -0.93498 33892 ft 453 kts 150°
2026-05-04 12:22 51.33264 -0.90773 34085 ft 453 kts 149°
2026-05-04 12:23 51.30622 -0.88035 34282 ft 452 kts 149°
2026-05-04 12:23 51.27954 -0.85267 34428 ft 451 kts 150°
2026-05-04 12:23 51.25347 -0.82616 34538 ft 451 kts 150°
2026-05-04 12:23 51.22690 -0.79938 34651 ft 452 kts 151°
2026-05-04 12:24 51.20029 -0.77262 34779 ft 452 kts 150°
2026-05-04 12:24 51.17373 -0.74589 34895 ft 452 kts 150°
2026-05-04 12:24 51.14716 -0.71910 35008 ft 452 kts 150°
2026-05-04 12:24 51.12009 -0.69179 35119 ft 452 kts 150°
2026-05-04 12:25 51.07161 -0.64302 35296 ft 453 kts 150°
2026-05-04 12:25 51.04538 -0.61633 35402 ft 453 kts 149°
2026-05-04 12:25 51.01910 -0.58869 35501 ft 454 kts 149°
2026-05-04 12:26 50.99292 -0.56068 35603 ft 454 kts 148°
2026-05-04 12:26 50.96678 -0.53254 35714 ft 454 kts 148°
2026-05-04 12:26 50.94062 -0.50442 35817 ft 454 kts 148°
2026-05-04 12:26 50.91451 -0.47644 35904 ft 454 kts 148°
2026-05-04 12:27 50.86203 -0.42055 36094 ft 454 kts 149°
2026-05-04 12:27 50.83587 -0.39281 36202 ft 453 kts 149°
2026-05-04 12:27 50.80963 -0.36505 36268 ft 454 kts 149°
2026-05-04 12:28 50.75713 -0.30966 36422 ft 454 kts 148°
2026-05-04 12:28 50.70453 -0.25431 36579 ft 454 kts 148°
2026-05-04 12:29 50.65189 -0.19904 36724 ft 454 kts 148°
2026-05-04 12:29 50.62559 -0.17148 36826 ft 453 kts 149°
2026-05-04 12:29 50.59937 -0.14405 36914 ft 453 kts 149°
2026-05-04 12:30 50.54711 -0.08947 37001 ft 454 kts 149°
2026-05-04 12:30 50.49439 -0.03458 36993 ft 454 kts 149°
2026-05-04 12:31 50.44148 0.01940 36986 ft 451 kts 157°
2026-05-04 12:31 50.38718 0.06818 36988 ft 449 kts 158°
2026-05-04 12:32 50.30734 0.14443 36994 ft 447 kts 156°
2026-05-04 12:33 50.25514 0.19689 36988 ft 444 kts 157°
2026-05-04 12:33 50.20414 0.25137 36996 ft 446 kts 145°
2026-05-04 12:34 50.15481 0.31071 36995 ft 449 kts 146°
2026-05-04 12:34 50.10398 0.36761 36994 ft 451 kts 148°
2026-05-04 12:35 50.05184 0.42196 36993 ft 451 kts 149°
2026-05-04 12:35 49.99929 0.47538 36988 ft 450 kts 150°
2026-05-04 12:36 49.94688 0.52850 36995 ft 450 kts 150°
2026-05-04 12:36 49.89449 0.58162 36990 ft 450 kts 149°
2026-05-04 12:37 49.84415 0.63953 36990 ft 453 kts 142°
2026-05-04 12:37 49.79744 0.70526 36988 ft 454 kts 140°
2026-05-04 12:38 49.75922 0.76101 36981 ft 454 kts 140°
2026-05-04 12:38 49.71327 0.82818 36980 ft 455 kts 140°
2026-05-04 12:39 49.65971 0.90606 36962 ft 455 kts 139°
2026-05-04 12:39 49.62126 0.96249 36984 ft 455 kts 140°
2026-05-04 12:40 49.57479 1.02888 36989 ft 456 kts 140°
2026-05-04 12:40 49.52855 1.09460 36991 ft 455 kts 140°
2026-05-04 12:41 49.48210 1.16081 36992 ft 455 kts 140°
2026-05-04 12:41 49.43564 1.22705 36993 ft 456 kts 140°
2026-05-04 12:42 49.38915 1.29319 36992 ft 456 kts 140°
2026-05-04 12:42 49.34289 1.35883 36985 ft 455 kts 140°
2026-05-04 12:43 49.29642 1.42459 36986 ft 454 kts 141°
2026-05-04 12:43 49.27517 1.45460 36985 ft 454 kts 141°
2026-05-04 12:44 49.22865 1.52013 36975 ft 454 kts 141°
2026-05-04 12:44 49.18217 1.58544 36970 ft 454 kts 141°
2026-05-04 12:45 49.13570 1.65058 36968 ft 454 kts 141°
2026-05-04 12:45 49.08913 1.71569 36969 ft 454 kts 141°
2026-05-04 12:46 49.04298 1.78128 36948 ft 453 kts 135°
2026-05-04 12:46 48.99775 1.84756 36962 ft 450 kts 142°
2026-05-04 12:47 48.95076 1.91039 36964 ft 450 kts 142°
2026-05-04 12:47 48.90380 1.97344 36971 ft 451 kts 142°
2026-05-04 12:48 48.85720 2.03714 36965 ft 451 kts 141°
2026-05-04 12:48 48.81106 2.10061 36987 ft 450 kts 141°
2026-05-04 12:49 48.76450 2.16393 36989 ft 451 kts 141°
2026-05-04 12:49 48.71801 2.22788 36965 ft 451 kts 141°
2026-05-04 12:50 48.67161 2.29160 36966 ft 450 kts 141°
2026-05-04 12:50 48.62508 2.35511 36966 ft 450 kts 142°
2026-05-04 12:51 48.57857 2.41829 36966 ft 449 kts 142°
2026-05-04 12:51 48.53208 2.48125 36966 ft 449 kts 142°
2026-05-04 12:52 48.48557 2.54408 36968 ft 449 kts 142°
2026-05-04 12:52 48.43899 2.60687 36966 ft 449 kts 142°
2026-05-04 12:53 48.39251 2.66936 36961 ft 448 kts 142°
2026-05-04 12:53 48.34610 2.73160 36972 ft 447 kts 142°
2026-05-04 12:54 48.29967 2.79369 36958 ft 447 kts 142°
2026-05-04 12:54 48.25248 2.85415 36955 ft 445 kts 145°
2026-05-04 12:55 48.20353 2.91085 36964 ft 444 kts 147°
2026-05-04 12:55 48.15429 2.96677 36955 ft 445 kts 147°
2026-05-04 12:56 48.10534 3.02252 36961 ft 444 kts 148°
2026-05-04 12:56 48.05197 3.06738 36961 ft 438 kts 159°
2026-05-04 12:57 47.99620 3.10400 36964 ft 438 kts 160°
2026-05-04 12:57 47.93994 3.13897 36959 ft 438 kts 161°
2026-05-04 12:58 47.88365 3.17386 36955 ft 438 kts 162°
2026-05-04 12:58 47.82725 3.20825 36950 ft 438 kts 162°
2026-05-04 12:59 47.77074 3.24234 36951 ft 438 kts 162°
2026-05-04 12:59 47.71431 3.27656 36949 ft 438 kts 160°
2026-05-04 13:00 47.65809 3.31176 36953 ft 439 kts 160°
2026-05-04 13:00 47.60209 3.34808 36953 ft 439 kts 160°
2026-05-04 13:01 47.54589 3.38298 36953 ft 438 kts 161°
2026-05-04 13:01 47.48983 3.41813 36953 ft 438 kts 161°
2026-05-04 13:02 47.43365 3.45315 36954 ft 438 kts 161°
2026-05-04 13:02 47.37735 3.48788 36949 ft 438 kts 161°
2026-05-04 13:03 47.32120 3.52279 36951 ft 438 kts 160°
2026-05-04 13:03 47.26546 3.55753 36956 ft 437 kts 161°
2026-05-04 13:03 47.23748 3.57461 36783 ft 434 kts 161°
2026-05-04 13:04 47.20953 3.59138 36522 ft 432 kts 161°
2026-05-04 13:04 47.18218 3.60948 36266 ft 432 kts 156°
2026-05-04 13:04 47.15646 3.63245 36021 ft 433 kts 148°
2026-05-04 13:04 47.13342 3.66084 35774 ft 435 kts 139°
2026-05-04 13:05 47.11371 3.69477 35526 ft 438 kts 129°
2026-05-04 13:05 47.09829 3.73348 35273 ft 442 kts 120°
2026-05-04 13:05 47.08585 3.77470 35029 ft 442 kts 118°
2026-05-04 13:05 47.07399 3.81631 34789 ft 440 kts 118°
2026-05-04 13:06 47.06221 3.85769 34550 ft 439 kts 118°
2026-05-04 13:06 47.05038 3.89888 34309 ft 438 kts 118°
2026-05-04 13:06 47.03850 3.93982 34079 ft 437 kts 119°
2026-05-04 13:06 47.02658 3.98072 33975 ft 436 kts 119°
2026-05-04 13:07 47.01468 4.02149 33960 ft 435 kts 119°
2026-05-04 13:07 46.99087 4.10296 34121 ft 433 kts 119°
2026-05-04 13:07 46.97902 4.14344 34270 ft 433 kts 119°
2026-05-04 13:08 46.96709 4.18404 34368 ft 434 kts 119°
2026-05-04 13:08 46.95517 4.22461 34541 ft 434 kts 119°
2026-05-04 13:08 46.94322 4.26518 34673 ft 434 kts 119°
2026-05-04 13:09 46.91924 4.34643 34822 ft 436 kts 119°
2026-05-04 13:09 46.90717 4.38723 34545 ft 437 kts 119°
2026-05-04 13:09 46.89512 4.42794 34141 ft 435 kts 119°
2026-05-04 13:09 46.88310 4.46847 33997 ft 435 kts 119°
2026-05-04 13:10 46.87102 4.50907 33976 ft 436 kts 119°
2026-05-04 13:10 46.85887 4.54983 33741 ft 441 kts 119°
2026-05-04 13:10 46.84657 4.59102 32919 ft 443 kts 119°
2026-05-04 13:10 46.83422 4.63237 31781 ft 446 kts 119°
2026-05-04 13:11 46.82173 4.67406 30632 ft 450 kts 118°
2026-05-04 13:11 46.80918 4.71597 29611 ft 450 kts 118°
2026-05-04 13:11 46.79668 4.75768 28724 ft 445 kts 118°
2026-05-04 13:11 46.78436 4.79875 27914 ft 439 kts 118°
2026-05-04 13:12 46.77238 4.83861 27337 ft 430 kts 119°
2026-05-04 13:12 46.76028 4.87871 26785 ft 425 kts 119°
2026-05-04 13:12 46.74837 4.91797 26183 ft 420 kts 119°
2026-05-04 13:12 46.73679 4.95625 25619 ft 417 kts 119°
2026-05-04 13:13 46.72509 4.99486 25039 ft 415 kts 119°
2026-05-04 13:13 46.71349 5.03308 24457 ft 413 kts 119°
2026-05-04 13:13 46.70187 5.07131 23885 ft 411 kts 119°
2026-05-04 13:13 46.69034 5.10934 23211 ft 411 kts 117°
2026-05-04 13:14 46.68018 5.14820 22772 ft 412 kts 115°
2026-05-04 13:14 46.67031 5.18731 22328 ft 409 kts 115°
2026-05-04 13:14 46.66066 5.22600 21748 ft 405 kts 115°
2026-05-04 13:14 46.64904 5.26308 21172 ft 399 kts 122°
2026-05-04 13:15 46.63605 5.29839 20673 ft 394 kts 123°
2026-05-04 13:15 46.62271 5.33320 20081 ft 394 kts 123°
2026-05-04 13:15 46.60922 5.36786 19488 ft 393 kts 123°
2026-05-04 13:15 46.59575 5.40221 18923 ft 390 kts 123°
2026-05-04 13:16 46.58229 5.43639 18345 ft 389 kts 123°
2026-05-04 13:16 46.56882 5.47046 17698 ft 387 kts 123°
2026-05-04 13:16 46.55547 5.50418 17133 ft 384 kts 123°
2026-05-04 13:16 46.54221 5.53764 16550 ft 381 kts 123°
2026-05-04 13:17 46.52903 5.57083 15972 ft 378 kts 123°
2026-05-04 13:17 46.51588 5.60387 15421 ft 376 kts 123°
2026-05-04 13:17 46.50283 5.63662 14851 ft 374 kts 123°
2026-05-04 13:17 46.48987 5.66913 14300 ft 371 kts 123°
2026-05-04 13:18 46.47698 5.70141 13756 ft 369 kts 123°
2026-05-04 13:18 46.46411 5.73358 13126 ft 368 kts 123°
2026-05-04 13:18 46.45133 5.76549 12574 ft 364 kts 123°
2026-05-04 13:18 46.43872 5.79699 12043 ft 359 kts 123°
2026-05-04 13:19 46.42623 5.82812 11507 ft 356 kts 123°
2026-05-04 13:19 46.41800 5.84862 11135 ft 355 kts 123°
2026-05-04 13:19 46.40170 5.88919 10825 ft 338 kts 123°
2026-05-04 13:19 46.39017 5.91792 10753 ft 321 kts 123°
2026-05-04 13:20 46.37925 5.94511 10636 ft 304 kts 124°
2026-05-04 13:20 46.36884 5.97097 10242 ft 295 kts 124°
2026-05-04 13:20 46.35847 5.99671 9995 ft 296 kts 123°
2026-05-04 13:20 46.35060 6.02422 9735 ft 298 kts 104°
2026-05-04 13:21 46.35075 6.05415 9546 ft 303 kts 78°
2026-05-04 13:21 46.36004 6.08108 9370 ft 294 kts 52°
2026-05-04 13:21 46.37330 6.10230 9083 ft 278 kts 46°
2026-05-04 13:21 46.38677 6.12171 8648 ft 268 kts 45°
2026-05-04 13:22 46.39985 6.14037 8174 ft 258 kts 46°
2026-05-04 13:22 46.41224 6.15818 7803 ft 245 kts 47°
2026-05-04 13:22 46.42411 6.17536 7402 ft 237 kts 47°
2026-05-04 13:22 46.43559 6.19210 6967 ft 231 kts 47°
2026-05-04 13:23 46.44671 6.20841 6580 ft 224 kts 49°
2026-05-04 13:23 46.45757 6.22441 6122 ft 222 kts 49°
2026-05-04 13:23 46.46820 6.24025 5654 ft 217 kts 51°
2026-05-04 13:23 46.47564 6.25853 5217 ft 209 kts 81°
2026-05-04 13:24 46.47584 6.27909 4772 ft 202 kts 103°
2026-05-04 13:24 46.47311 6.29903 4314 ft 200 kts 114°
2026-05-04 13:24 46.46956 6.31115 4104 ft 195 kts 122°
2026-05-04 13:25 46.45217 6.33798 4035 ft 183 kts 171°
2026-05-04 13:25 46.43960 6.33817 4040 ft 182 kts 189°
2026-05-04 13:25 46.42712 6.33473 4063 ft 183 kts 197°
2026-05-04 13:25 46.41524 6.32868 4037 ft 180 kts 201°
2026-05-04 13:26 46.40348 6.32198 4059 ft 182 kts 202°
2026-05-04 13:26 46.39180 6.31499 4069 ft 181 kts 202°
2026-05-04 13:26 46.38015 6.30783 4068 ft 183 kts 202°
2026-05-04 13:26 46.36889 6.29931 4065 ft 184 kts 214°
2026-05-04 13:27 46.35942 6.28754 4064 ft 172 kts 223°
2026-05-04 13:27 46.35116 6.27542 4074 ft 169 kts 224°
2026-05-04 13:27 46.34292 6.26320 4039 ft 170 kts 224°
2026-05-04 13:27 46.33461 6.25109 3818 ft 167 kts 224°
2026-05-04 13:28 46.32687 6.23972 3609 ft 154 kts 224°
2026-05-04 13:28 46.31966 6.22907 3407 ft 146 kts 225°
2026-05-04 13:28 46.31236 6.21831 3208 ft 153 kts 225°
2026-05-04 13:28 46.30487 6.20725 2997 ft 154 kts 225°
2026-05-04 13:29 46.29735 6.19617 2785 ft 154 kts 225°
2026-05-04 13:29 46.28990 6.18520 2558 ft 153 kts 226°
2026-05-04 13:29 46.28248 6.17427 2351 ft 152 kts 226°
2026-05-04 13:29 46.27516 6.16348 2118 ft 150 kts 228°
2026-05-04 13:30 46.26806 6.15305 1903 ft 147 kts 227°
2026-05-04 13:30 46.26094 6.14253 1716 ft 146 kts 227°
2026-05-04 13:30 46.25379 6.13201 1512 ft 149 kts 227°
2026-05-04 13:30 46.24660 6.12141 1376 ft 142 kts 226°
2026-05-04 13:31 46.24126 6.11367 1377 ft 67 kts 226°
2026-05-04 13:31 46.23904 6.11076 1379 ft 27 kts 197°
2026-05-04 13:31 46.23761 6.11086 1383 ft 9 kts 172°